This demonstration page uses our WeatherBlox Daily Observations layout. Learn more.

38.88101, -77.10428

Hourly Observations for April 9, 2020

Temp ( °F °C ) Dew Point ( °F °C ) Humidity (%) Winds ( mph kmh ) Pressure ( in mb ) Visibility ( mi km ) Precip ( " mm )
12:52 am 00:52 Partly Cloudy 59 15 55 12.8 87 87 S 6 9 29.57 1001 10 16.0934 0 0
1:52 am 01:52 Mostly Cloudy 58 14.4 54 12.2 87 87 SSW 5 7 29.56 1001 10 16.0934 0 0
2:52 am 02:52 Mostly Cloudy 58 14.4 51 10.6 78 78 Calm 29.54 1000 9 14.48406 0 0
3:52 am 03:52 Cloudy 59 15 51 10.6 75 75 E 5 7 29.5 999 10 16.0934 0 0
4:52 am 04:52 Cloudy 58 14.4 50 10 75 75 Calm 29.47 998 10 16.0934 0 0
5:52 am 05:52 Cloudy 57 13.9 53 11.7 87 87 NNW 6 9 29.49 999 10 16.0934 0 0
6:21 am 06:21 Cloudy with Thunderstorms 58 14.4 53 11.7 84 84 W 10 17 29.52 1000 5 8.0467 0.02 0.508
6:25 am 06:25 Cloudy with Heavy Thunderstorms 57 13.9 52 11.1 83 83 NW 8 13 29.49 999 1.5 2.41401 0.05 1.27
6:30 am 06:30 Cloudy with Thunderstorms 56 13.3 53 11.7 90 90 N 8 13 29.46 998 4 6.43736 0.13 3.302
6:35 am 06:35 Cloudy with Light Thunderstorms 56 13.3 53 11.7 90 90 ENE 10 17 29.45 997 7 11.26538 0.14 3.556
6:44 am 06:44 Cloudy with Light Rain 56 13.3 53 11.7 90 90 NNE 5 7 29.45 997 10 16.0934 0.14 3.556
6:52 am 06:52 Cloudy 56 13.3 53 11.7 90 90 NNW 8 13 29.47 998 10 16.0934 0.14 3.556
7:52 am 07:52 Mostly Cloudy 56 13.3 53 11.7 90 90 E 5 7 29.44 997 10 16.0934 0 0
8:52 am 08:52 Partly Cloudy 57 13.9 54 12.2 90 90 SSE 3 6 29.39 995 10 16.0934 0 0
9:52 am 09:52 Mostly Sunny 61 16.1 55 12.8 81 81 S 7 11 29.36 994 10 16.0934 0 0
10:52 am 10:52 Mostly Sunny 68 20 57 13.9 68 68 SSW 10 17 29.34 994 10 16.0934 0 0
11:52 am 11:52 Mostly Cloudy 72 22.2 54 12.2 53 53 WSW 18 30 29.3 992 10 16.0934 0 0
12:18 pm 12:18 Mostly Cloudy with Nearby Thunderstorms 73 22.8 50 10 44 44 W 28 44 29.3 992 10 16.0934 0 0
12:32 pm 12:32 Mostly Cloudy 71 21.7 52 11.1 51 51 NW 20 31 29.31 992 10 16.0934 0 0
12:52 pm 12:52 Mostly Cloudy 70 21.1 49 9.4 47 47 WNW 25 41 29.3 992 10 16.0934 0 0
1:52 pm 13:52 Partly Cloudy 71 21.7 45 7.2 39 39 NW 29 46 29.33 993 10 16.0934 0 0
2:52 pm 14:52 Partly Cloudy 67 19.4 38 3.3 35 35 NW 31 50 29.36 994 10 16.0934 0 0
3:52 pm 15:52 Partly Cloudy 62 16.7 39 3.9 43 43 NW 21 33 29.41 996 10 16.0934 0 0
4:52 pm 16:52 Mostly Sunny 58 14.4 32 0 38 38 NW 24 39 29.44 997 10 16.0934 0 0
5:52 pm 17:52 Mostly Sunny 59 15 29 -1.7 32 32 NW 21 33 29.46 998 10 16.0934 0 0
6:52 pm 18:52 Mostly Sunny 57 13.9 28 -2.2 33 33 NW 18 30 29.48 998 10 16.0934 0 0
7:52 pm 19:52 Mostly Clear 55 12.8 26 -3.3 33 33 NW 28 44 29.5 999 10 16.0934 0 0
8:52 pm 20:52 Mostly Clear 53 11.7 30 -1.1 41 41 NW 28 44 29.53 1000 10 16.0934 0 0
9:52 pm 21:52 Mostly Clear 51 10.6 31 -0.6 46 46 NW 24 39 29.57 1001 10 16.0934 0 0
10:52 pm 22:52 Mostly Clear 50 10 32 0 50 50 NW 24 39 29.58 1002 10 16.0934 0 0
11:52 pm 23:52 Clear 49 9.4 25 -3.9 39 39 WNW 21 33 29.58 1002 10 16.0934 0 0

Powered by AerisWeather